User: anonymous   Login
Location: Karcze
(52.0945°N, 22.4786°E)
Time: 17:05:52
(UTC+00:00)
Language:

Vanguard 1 - Orbit

View from above orbital plane
View from above orbital plane
View from above satellite
View from above satellite

Ground track
Ground track

The orbit data is extracted from the following two-line orbital elements,

1 00005U 58002B   21208.74509124 -.00000113  00000-0 -12676-3 0  9997
2 00005  34.2480  59.6505 1844725  16.2033 349.0306 10.84825336249273
Epoch (UTC): 27 July 2021 17:52:55
Eccentricity: 0.1844725
inclination: 34.2480°
perigee height: 651 km
apogee height: 3832 km
right ascension of ascending node: 59.6505°
argument of perigee: 16.2033°
revolutions per day: 10.84825336
mean anomaly at epoch: 349.0306°
orbit number at epoch: 24927

The dashed part of the orbit path shows where the satellite is in the earth's shadow,  

DLR